Year,Month,Day,Hour,Minute,Value (Times are PST for temperature in C)
2017,04,02,00,00,7.00
2017,04,02,00,01,7.00
2017,04,02,00,02,7.00
2017,04,02,00,03,7.00
2017,04,02,00,04,7.00
2017,04,02,00,05,7.00
2017,04,02,00,06,6.90
2017,04,02,00,07,6.90
2017,04,02,00,08,6.90
2017,04,02,00,09,6.90
2017,04,02,00,10,6.90
2017,04,02,00,11,6.90
2017,04,02,00,12,6.90
2017,04,02,00,13,6.90
2017,04,02,00,14,6.90
2017,04,02,00,15,6.80
2017,04,02,00,16,6.80
2017,04,02,00,17,6.80
2017,04,02,00,18,6.80
2017,04,02,00,19,6.80
2017,04,02,00,20,6.80
2017,04,02,00,21,6.70
2017,04,02,00,22,6.70
2017,04,02,00,23,6.70
2017,04,02,00,24,6.70
2017,04,02,00,25,6.70
2017,04,02,00,26,6.70
2017,04,02,00,27,6.70
2017,04,02,00,28,6.70
2017,04,02,00,29,6.70
2017,04,02,00,30,6.70
2017,04,02,00,31,6.70
2017,04,02,00,32,6.70
2017,04,02,00,33,6.70
2017,04,02,00,34,6.70
2017,04,02,00,35,6.70
2017,04,02,00,36,6.70
2017,04,02,00,37,6.70
2017,04,02,00,38,6.70
2017,04,02,00,39,6.70
2017,04,02,00,40,6.70
2017,04,02,00,41,6.70
2017,04,02,00,42,6.70
2017,04,02,00,43,6.70
2017,04,02,00,44,6.70
2017,04,02,00,45,6.70
2017,04,02,00,46,6.70
2017,04,02,00,47,6.70
2017,04,02,00,48,6.70
2017,04,02,00,49,6.70
2017,04,02,00,50,6.70
2017,04,02,00,51,6.70
2017,04,02,00,52,6.70
2017,04,02,00,53,6.70
2017,04,02,00,54,6.70
2017,04,02,00,55,6.60
2017,04,02,00,56,6.60
2017,04,02,00,57,6.60
2017,04,02,00,58,6.60
2017,04,02,00,59,6.60
2017,04,02,01,00,6.60
2017,04,02,01,01,6.60
2017,04,02,01,02,6.60
2017,04,02,01,03,6.60
2017,04,02,01,04,6.60
2017,04,02,01,05,6.60
2017,04,02,01,06,6.60
2017,04,02,01,07,6.60
2017,04,02,01,08,6.50
2017,04,02,01,09,6.50
2017,04,02,01,10,6.50
2017,04,02,01,11,6.50
2017,04,02,01,12,6.50
2017,04,02,01,13,6.50
2017,04,02,01,14,6.50
2017,04,02,01,15,6.50
2017,04,02,01,16,6.50
2017,04,02,01,17,6.50
2017,04,02,01,18,6.50
2017,04,02,01,19,6.60
2017,04,02,01,20,6.60
2017,04,02,01,21,6.50
2017,04,02,01,22,6.50
2017,04,02,01,23,6.50
2017,04,02,01,24,6.50
2017,04,02,01,25,6.50
2017,04,02,01,26,6.50
2017,04,02,01,27,6.50
2017,04,02,01,28,6.40
2017,04,02,01,29,6.40
2017,04,02,01,30,6.40
2017,04,02,01,31,6.40
2017,04,02,01,32,6.40
2017,04,02,01,33,6.30
2017,04,02,01,34,6.30
2017,04,02,01,35,6.20
2017,04,02,01,36,6.10
2017,04,02,01,37,6.10
2017,04,02,01,38,6.00
2017,04,02,01,39,5.90
2017,04,02,01,40,5.90
2017,04,02,01,41,5.80
2017,04,02,01,42,5.80
2017,04,02,01,43,5.80
2017,04,02,01,44,5.70
2017,04,02,01,45,5.70
2017,04,02,01,46,5.60
2017,04,02,01,47,5.60
2017,04,02,01,48,5.50
2017,04,02,01,49,5.50
2017,04,02,01,50,5.50
2017,04,02,01,51,5.40
2017,04,02,01,52,5.40
2017,04,02,01,53,5.40
2017,04,02,01,54,5.30
2017,04,02,01,55,5.30
2017,04,02,01,56,5.30
2017,04,02,01,57,5.30
2017,04,02,01,58,5.20
2017,04,02,01,59,5.20
2017,04,02,02,00,5.20
2017,04,02,02,01,5.20
2017,04,02,02,02,5.10
2017,04,02,02,03,5.10
2017,04,02,02,04,5.10
2017,04,02,02,05,5.10
2017,04,02,02,06,5.00
2017,04,02,02,07,5.00
2017,04,02,02,08,4.90
2017,04,02,02,09,4.90
2017,04,02,02,10,4.90
2017,04,02,02,11,4.80
2017,04,02,02,12,4.80
2017,04,02,02,13,4.80
2017,04,02,02,14,4.80
2017,04,02,02,15,4.80
2017,04,02,02,16,4.80
2017,04,02,02,17,4.70
2017,04,02,02,18,4.70
2017,04,02,02,19,4.70
2017,04,02,02,20,4.70
2017,04,02,02,21,4.70
2017,04,02,02,22,4.70
2017,04,02,02,23,4.70
2017,04,02,02,24,4.70
2017,04,02,02,25,4.70
2017,04,02,02,26,4.70
2017,04,02,02,27,4.70
2017,04,02,02,28,4.70
2017,04,02,02,29,4.70
2017,04,02,02,30,4.70
2017,04,02,02,31,4.70
2017,04,02,02,32,4.70
2017,04,02,02,33,4.80
2017,04,02,02,34,4.80
2017,04,02,02,35,4.80
2017,04,02,02,36,4.80
2017,04,02,02,37,4.80
2017,04,02,02,38,4.80
2017,04,02,02,39,4.80
2017,04,02,02,40,4.80
2017,04,02,02,41,4.80
2017,04,02,02,42,4.80
2017,04,02,02,43,4.80
2017,04,02,02,44,4.80
2017,04,02,02,45,4.70
2017,04,02,02,46,4.70
2017,04,02,02,47,4.70
2017,04,02,02,48,4.70
2017,04,02,02,49,4.70
2017,04,02,02,50,4.60
2017,04,02,02,51,4.60
2017,04,02,02,52,4.60
2017,04,02,02,53,4.60
2017,04,02,02,54,4.60
2017,04,02,02,55,4.50
2017,04,02,02,56,4.50
2017,04,02,02,57,4.40
2017,04,02,02,58,4.40
2017,04,02,02,59,4.40
2017,04,02,03,00,4.30
2017,04,02,03,01,4.30
2017,04,02,03,02,4.30
2017,04,02,03,03,4.20
2017,04,02,03,04,4.10
2017,04,02,03,05,4.10
2017,04,02,03,06,4.10
2017,04,02,03,07,4.00
2017,04,02,03,08,4.00
2017,04,02,03,09,3.90
2017,04,02,03,10,3.90
2017,04,02,03,11,3.90
2017,04,02,03,12,3.80
2017,04,02,03,13,3.80
2017,04,02,03,14,3.80
2017,04,02,03,15,3.80
2017,04,02,03,16,3.70
2017,04,02,03,17,3.70
2017,04,02,03,18,3.70
2017,04,02,03,19,3.60
2017,04,02,03,20,3.60
2017,04,02,03,21,3.60
2017,04,02,03,22,3.50
2017,04,02,03,23,3.50
2017,04,02,03,24,3.50
2017,04,02,03,25,3.40
2017,04,02,03,26,3.40
2017,04,02,03,27,3.40
2017,04,02,03,28,3.40
2017,04,02,03,29,3.40
2017,04,02,03,30,3.30
2017,04,02,03,31,3.30
2017,04,02,03,32,3.30
2017,04,02,03,33,3.30
2017,04,02,03,34,3.30
2017,04,02,03,35,3.30
2017,04,02,03,36,3.30
2017,04,02,03,37,3.30
2017,04,02,03,38,3.30
2017,04,02,03,39,3.30
2017,04,02,03,40,3.30
2017,04,02,03,41,3.20
2017,04,02,03,42,3.20
2017,04,02,03,43,3.20
2017,04,02,03,44,3.20
2017,04,02,03,45,3.20
2017,04,02,03,46,3.20
2017,04,02,03,47,3.20
2017,04,02,03,48,3.20
2017,04,02,03,49,3.20
2017,04,02,03,50,3.20
2017,04,02,03,51,3.20
2017,04,02,03,52,3.10
2017,04,02,03,53,3.10
2017,04,02,03,54,3.10
2017,04,02,03,55,3.10
2017,04,02,03,56,3.10
2017,04,02,03,57,3.10
2017,04,02,03,58,3.10
2017,04,02,03,59,3.10
2017,04,02,04,00,3.10
2017,04,02,04,01,3.00
2017,04,02,04,02,3.00
2017,04,02,04,03,3.00
2017,04,02,04,04,3.00
2017,04,02,04,05,3.00
2017,04,02,04,06,3.00
2017,04,02,04,07,3.00
2017,04,02,04,08,3.00
2017,04,02,04,09,2.90
2017,04,02,04,10,2.90
2017,04,02,04,11,2.90
2017,04,02,04,12,2.90
2017,04,02,04,13,2.90
2017,04,02,04,14,2.90
2017,04,02,04,15,2.90
2017,04,02,04,16,2.90
2017,04,02,04,17,2.90
2017,04,02,04,18,2.80
2017,04,02,04,19,2.80
2017,04,02,04,20,2.80
2017,04,02,04,21,2.80
2017,04,02,04,22,2.80
2017,04,02,04,23,2.80
2017,04,02,04,24,2.80
2017,04,02,04,25,2.80
2017,04,02,04,26,2.80
2017,04,02,04,27,2.80
2017,04,02,04,28,2.80
2017,04,02,04,29,2.80
2017,04,02,04,30,2.80
2017,04,02,04,31,2.80
2017,04,02,04,32,2.80
2017,04,02,04,33,2.80
2017,04,02,04,34,2.80
2017,04,02,04,35,2.80
2017,04,02,04,36,2.80
2017,04,02,04,37,2.80
2017,04,02,04,38,2.80
2017,04,02,04,39,2.80
2017,04,02,04,40,2.80
2017,04,02,04,41,2.80
2017,04,02,04,42,2.80
2017,04,02,04,43,2.80
2017,04,02,04,44,2.80
2017,04,02,04,45,2.80
2017,04,02,04,46,2.80
2017,04,02,04,47,2.80
2017,04,02,04,48,2.80
2017,04,02,04,49,2.80
2017,04,02,04,50,2.90
2017,04,02,04,51,2.90
2017,04,02,04,52,2.90
2017,04,02,04,53,2.90
2017,04,02,04,54,2.90
2017,04,02,04,55,2.90
2017,04,02,04,56,2.90
2017,04,02,04,57,2.90
2017,04,02,04,58,2.90
2017,04,02,04,59,2.90
2017,04,02,05,00,2.90
2017,04,02,05,01,2.90
2017,04,02,05,02,2.90
2017,04,02,05,03,2.90
2017,04,02,05,04,2.90
2017,04,02,05,05,2.90
2017,04,02,05,06,2.90
2017,04,02,05,07,2.90
2017,04,02,05,08,2.90
2017,04,02,05,09,2.90
2017,04,02,05,10,2.80
2017,04,02,05,11,2.80
2017,04,02,05,12,2.80
2017,04,02,05,13,2.80
2017,04,02,05,14,2.80
2017,04,02,05,15,2.80
2017,04,02,05,16,2.80
2017,04,02,05,17,2.80
2017,04,02,05,18,2.80
2017,04,02,05,19,2.80
2017,04,02,05,20,2.80
2017,04,02,05,21,2.80
2017,04,02,05,22,2.80
2017,04,02,05,23,2.80
2017,04,02,05,24,2.80
2017,04,02,05,25,2.80
2017,04,02,05,26,2.80
2017,04,02,05,27,2.80
2017,04,02,05,28,2.80
2017,04,02,05,29,2.80
2017,04,02,05,30,2.80
2017,04,02,05,31,2.70
2017,04,02,05,32,2.70
2017,04,02,05,33,2.70
2017,04,02,05,34,2.70
2017,04,02,05,35,2.70
2017,04,02,05,36,2.70
2017,04,02,05,37,2.70
2017,04,02,05,38,2.70
2017,04,02,05,39,2.70
2017,04,02,05,40,2.70
2017,04,02,05,41,2.70
2017,04,02,05,42,2.70
2017,04,02,05,43,2.70
2017,04,02,05,44,2.70
2017,04,02,05,45,2.70
2017,04,02,05,46,2.70
2017,04,02,05,47,2.70
2017,04,02,05,48,2.70
2017,04,02,05,49,2.70
2017,04,02,05,50,2.70
2017,04,02,05,51,2.70
2017,04,02,05,52,2.70
2017,04,02,05,53,2.70
2017,04,02,05,54,2.70
2017,04,02,05,55,2.70
2017,04,02,05,56,2.70
2017,04,02,05,57,2.80
2017,04,02,05,58,2.80
2017,04,02,05,59,2.80
2017,04,02,06,00,2.90
2017,04,02,06,01,2.90
2017,04,02,06,02,2.90
2017,04,02,06,03,2.90
2017,04,02,06,04,2.90
2017,04,02,06,05,2.90
2017,04,02,06,06,3.00
2017,04,02,06,07,3.10
2017,04,02,06,08,3.10
2017,04,02,06,09,3.20
2017,04,02,06,10,3.20
2017,04,02,06,11,3.20
2017,04,02,06,12,3.20
2017,04,02,06,13,3.20
2017,04,02,06,14,3.30
2017,04,02,06,15,3.30
2017,04,02,06,16,3.30
2017,04,02,06,17,3.40
2017,04,02,06,18,3.40
2017,04,02,06,19,3.40
2017,04,02,06,20,3.40
2017,04,02,06,21,3.40
2017,04,02,06,22,3.50
2017,04,02,06,23,3.60
2017,04,02,06,24,3.70
2017,04,02,06,25,3.80
2017,04,02,06,26,3.80
2017,04,02,06,27,3.80
2017,04,02,06,28,3.80
2017,04,02,06,29,3.80
2017,04,02,06,30,3.90
2017,04,02,06,31,3.90
2017,04,02,06,32,3.90
2017,04,02,06,33,3.90
2017,04,02,06,34,3.90
2017,04,02,06,35,3.90
2017,04,02,06,36,3.90
2017,04,02,06,37,3.90
2017,04,02,06,38,3.90
2017,04,02,06,39,3.90
2017,04,02,06,40,3.90
2017,04,02,06,41,3.90
2017,04,02,06,42,3.90
2017,04,02,06,43,4.00
2017,04,02,06,44,4.00
2017,04,02,06,45,4.10
2017,04,02,06,46,4.10
2017,04,02,06,47,4.10
2017,04,02,06,48,4.20
2017,04,02,06,49,4.30
2017,04,02,06,50,4.30
2017,04,02,06,51,4.40
2017,04,02,06,52,4.40
2017,04,02,06,53,4.50
2017,04,02,06,54,4.50
2017,04,02,06,55,4.60
2017,04,02,06,56,4.60
2017,04,02,06,57,4.60
2017,04,02,06,58,4.70
2017,04,02,06,59,4.70
2017,04,02,07,00,4.70
2017,04,02,07,01,4.80
2017,04,02,07,02,4.80
2017,04,02,07,03,4.80
2017,04,02,07,04,4.90
2017,04,02,07,05,4.90
2017,04,02,07,06,4.90
2017,04,02,07,07,4.90
2017,04,02,07,08,5.00
2017,04,02,07,09,5.00
2017,04,02,07,10,5.00
2017,04,02,07,11,5.00
2017,04,02,07,12,5.00
2017,04,02,07,13,5.10
2017,04,02,07,14,5.10
2017,04,02,07,15,5.10
2017,04,02,07,16,5.10
2017,04,02,07,17,5.10
2017,04,02,07,18,5.10
2017,04,02,07,19,5.10
2017,04,02,07,20,5.10
2017,04,02,07,21,5.10
2017,04,02,07,22,5.10
2017,04,02,07,23,5.10
2017,04,02,07,24,5.10
2017,04,02,07,25,5.10
2017,04,02,07,26,5.20
2017,04,02,07,27,5.20
2017,04,02,07,28,5.20
2017,04,02,07,29,5.20
2017,04,02,07,30,5.20
2017,04,02,07,31,5.20
2017,04,02,07,32,5.20
2017,04,02,07,33,5.20
2017,04,02,07,34,5.20
2017,04,02,07,35,5.20
2017,04,02,07,36,5.20
2017,04,02,07,37,5.20
2017,04,02,07,38,5.20
2017,04,02,07,39,5.20
2017,04,02,07,40,5.20
2017,04,02,07,41,5.20
2017,04,02,07,42,5.20
2017,04,02,07,43,5.20
2017,04,02,07,44,5.20
2017,04,02,07,45,5.20
2017,04,02,07,46,5.20
2017,04,02,07,47,5.20
2017,04,02,07,48,5.20
2017,04,02,07,49,5.20
2017,04,02,07,50,5.20
2017,04,02,07,51,5.20
2017,04,02,07,52,5.20
2017,04,02,07,53,5.20
2017,04,02,07,54,5.20
2017,04,02,07,55,5.20
2017,04,02,07,56,5.20
2017,04,02,07,57,5.20
2017,04,02,07,58,5.20
2017,04,02,07,59,5.30
2017,04,02,08,00,5.30
2017,04,02,08,01,5.30
2017,04,02,08,02,5.30
2017,04,02,08,03,5.30
2017,04,02,08,04,5.30
2017,04,02,08,05,5.40
2017,04,02,08,06,5.40
2017,04,02,08,07,5.40
2017,04,02,08,08,5.40
2017,04,02,08,09,5.50
2017,04,02,08,10,5.50
2017,04,02,08,11,5.50
2017,04,02,08,12,5.50
2017,04,02,08,13,5.50
2017,04,02,08,14,5.50
2017,04,02,08,15,5.60
2017,04,02,08,16,5.60
2017,04,02,08,17,5.60
2017,04,02,08,18,5.60
2017,04,02,08,19,5.60
2017,04,02,08,20,5.60
2017,04,02,08,21,5.70
2017,04,02,08,22,5.70
2017,04,02,08,23,5.70
2017,04,02,08,24,5.70
2017,04,02,08,25,5.70
2017,04,02,08,26,5.70
2017,04,02,08,27,5.80
2017,04,02,08,28,5.80
2017,04,02,08,29,5.80
2017,04,02,08,30,5.80
2017,04,02,08,31,5.90
2017,04,02,08,32,5.90
2017,04,02,08,33,5.90
2017,04,02,08,34,5.90
2017,04,02,08,35,5.90
2017,04,02,08,36,5.90
2017,04,02,08,37,6.00
2017,04,02,08,38,6.00
2017,04,02,08,39,6.00
2017,04,02,08,40,6.10
2017,04,02,08,41,6.10
2017,04,02,08,42,6.10
2017,04,02,08,43,6.10
2017,04,02,08,44,6.20
2017,04,02,08,45,6.20
2017,04,02,08,46,6.20
2017,04,02,08,47,6.20
2017,04,02,08,48,6.30
2017,04,02,08,49,6.30
2017,04,02,08,50,6.30
2017,04,02,08,51,6.40
2017,04,02,08,52,6.40
2017,04,02,08,53,6.40
2017,04,02,08,54,6.50
2017,04,02,08,55,6.50
2017,04,02,08,56,6.50
2017,04,02,08,57,6.50
2017,04,02,08,58,6.60
2017,04,02,08,59,6.60
2017,04,02,09,00,6.60
2017,04,02,09,01,6.70
2017,04,02,09,02,6.70
2017,04,02,09,03,6.70
2017,04,02,09,04,6.80
2017,04,02,09,05,6.90
2017,04,02,09,06,6.90
2017,04,02,09,07,7.00
2017,04,02,09,08,7.10
2017,04,02,09,09,7.20
2017,04,02,09,10,7.20
2017,04,02,09,11,7.20
2017,04,02,09,12,7.30
2017,04,02,09,13,7.30
2017,04,02,09,14,7.40
2017,04,02,09,15,7.50
2017,04,02,09,16,7.60
2017,04,02,09,17,7.60
2017,04,02,09,18,7.60
2017,04,02,09,19,7.60
2017,04,02,09,20,7.60
2017,04,02,09,21,7.60
2017,04,02,09,22,7.50
2017,04,02,09,23,7.60
2017,04,02,09,24,7.60
2017,04,02,09,25,7.60
2017,04,02,09,26,7.60
2017,04,02,09,27,7.70
2017,04,02,09,28,7.70
2017,04,02,09,29,7.70
2017,04,02,09,30,7.70
2017,04,02,09,31,7.70
2017,04,02,09,32,7.80
2017,04,02,09,33,7.80
2017,04,02,09,34,7.80
2017,04,02,09,35,7.80
2017,04,02,09,36,7.80
2017,04,02,09,37,7.90
2017,04,02,09,38,7.80
2017,04,02,09,39,7.80
2017,04,02,09,40,7.80
2017,04,02,09,41,7.80
2017,04,02,09,42,7.70
2017,04,02,09,43,7.60
2017,04,02,09,44,7.60
2017,04,02,09,45,7.60
2017,04,02,09,46,7.60
2017,04,02,09,47,7.60
2017,04,02,09,48,7.60
2017,04,02,09,49,7.60
2017,04,02,09,50,7.70
2017,04,02,09,51,7.70
2017,04,02,09,52,7.80
2017,04,02,09,53,7.80
2017,04,02,09,54,7.90
2017,04,02,09,55,7.90
2017,04,02,09,56,7.90
2017,04,02,09,57,7.90
2017,04,02,09,58,7.90
2017,04,02,09,59,7.90
2017,04,02,10,00,7.90
2017,04,02,10,01,7.90
2017,04,02,10,02,8.00
2017,04,02,10,03,8.00
2017,04,02,10,04,8.00
2017,04,02,10,05,8.00
2017,04,02,10,06,8.00
2017,04,02,10,07,8.00
2017,04,02,10,08,8.00
2017,04,02,10,09,8.10
2017,04,02,10,10,8.10
2017,04,02,10,11,8.10
2017,04,02,10,12,8.20
2017,04,02,10,13,8.30
2017,04,02,10,14,8.40
2017,04,02,10,15,8.40
2017,04,02,10,16,8.40
2017,04,02,10,17,8.40
2017,04,02,10,18,8.40
2017,04,02,10,19,8.40
2017,04,02,10,20,8.40
2017,04,02,10,21,8.40
2017,04,02,10,22,8.40
2017,04,02,10,23,8.40
2017,04,02,10,24,8.30
2017,04,02,10,25,8.40
2017,04,02,10,26,8.40
2017,04,02,10,27,8.40
2017,04,02,10,28,8.40
2017,04,02,10,29,8.50
2017,04,02,10,30,8.50
2017,04,02,10,31,8.50
2017,04,02,10,32,8.50
2017,04,02,10,33,8.40
2017,04,02,10,34,8.40
2017,04,02,10,35,8.40
2017,04,02,10,36,8.50
2017,04,02,10,37,8.50
2017,04,02,10,38,8.50
2017,04,02,10,39,8.50
2017,04,02,10,40,8.60
2017,04,02,10,41,8.60
2017,04,02,10,42,8.50
2017,04,02,10,43,8.40
2017,04,02,10,44,8.40
2017,04,02,10,45,8.30
2017,04,02,10,46,8.30
2017,04,02,10,47,8.40
2017,04,02,10,48,8.40
2017,04,02,10,49,8.50
2017,04,02,10,50,8.60
2017,04,02,10,51,8.70
2017,04,02,10,52,8.80
2017,04,02,10,53,8.80
2017,04,02,10,54,8.80
2017,04,02,10,55,8.70
2017,04,02,10,56,8.70
2017,04,02,10,57,8.60
2017,04,02,10,58,8.60
2017,04,02,10,59,8.60
2017,04,02,11,00,8.60
2017,04,02,11,01,8.50
2017,04,02,11,02,8.60
2017,04,02,11,03,8.60
2017,04,02,11,04,8.60
2017,04,02,11,05,8.60
2017,04,02,11,06,8.70
2017,04,02,11,07,8.80
2017,04,02,11,08,8.80
2017,04,02,11,09,8.80
2017,04,02,11,10,8.90
2017,04,02,11,11,8.80
2017,04,02,11,12,8.70
2017,04,02,11,13,8.70
2017,04,02,11,14,8.70
2017,04,02,11,15,8.80
2017,04,02,11,16,8.80
2017,04,02,11,17,8.80
2017,04,02,11,18,8.70
2017,04,02,11,19,8.70
2017,04,02,11,20,8.80
2017,04,02,11,21,8.80
2017,04,02,11,22,8.90
2017,04,02,11,23,8.90
2017,04,02,11,24,8.90
2017,04,02,11,25,9.00
2017,04,02,11,26,9.00
2017,04,02,11,27,9.10
2017,04,02,11,28,9.10
2017,04,02,11,29,9.10
2017,04,02,11,30,9.10
2017,04,02,11,31,9.10
2017,04,02,11,32,9.10
2017,04,02,11,33,9.20
2017,04,02,11,34,9.10
2017,04,02,11,35,9.00
2017,04,02,11,36,8.90
2017,04,02,11,37,8.80
2017,04,02,11,38,8.80
2017,04,02,11,39,8.90
2017,04,02,11,40,8.90
2017,04,02,11,41,9.00
2017,04,02,11,42,9.10
2017,04,02,11,43,9.10
2017,04,02,11,44,9.20
2017,04,02,11,45,9.30
2017,04,02,11,46,9.30
2017,04,02,11,47,9.40
2017,04,02,11,48,9.40
2017,04,02,11,49,9.50
2017,04,02,11,50,9.50
2017,04,02,11,51,9.60
2017,04,02,11,52,9.60
2017,04,02,11,53,9.70
2017,04,02,11,54,9.70
2017,04,02,11,55,9.70
2017,04,02,11,56,9.80
2017,04,02,11,57,9.70
2017,04,02,11,58,9.70
2017,04,02,11,59,9.70
2017,04,02,12,00,9.70
2017,04,02,12,01,9.70
2017,04,02,12,02,9.70
2017,04,02,12,03,9.70
2017,04,02,12,04,9.70
2017,04,02,12,05,9.60
2017,04,02,12,06,9.60
2017,04,02,12,07,9.60
2017,04,02,12,08,9.50
2017,04,02,12,09,9.50
2017,04,02,12,10,9.30
2017,04,02,12,11,9.30
2017,04,02,12,12,9.20
2017,04,02,12,13,9.10
2017,04,02,12,14,8.90
2017,04,02,12,15,8.70
2017,04,02,12,16,8.60
2017,04,02,12,17,8.40
2017,04,02,12,18,8.30
2017,04,02,12,19,8.20
2017,04,02,12,20,8.00
2017,04,02,12,21,7.90
2017,04,02,12,22,7.90
2017,04,02,12,23,7.80
2017,04,02,12,24,7.80
2017,04,02,12,25,7.70
2017,04,02,12,26,7.70
2017,04,02,12,27,7.70
2017,04,02,12,28,7.80
2017,04,02,12,29,7.80
2017,04,02,12,30,7.90
2017,04,02,12,31,7.90
2017,04,02,12,32,8.00
2017,04,02,12,33,8.10
2017,04,02,12,34,8.10
2017,04,02,12,35,8.20
2017,04,02,12,36,8.40
2017,04,02,12,37,8.60
2017,04,02,12,38,8.80
2017,04,02,12,39,8.90
2017,04,02,12,40,9.10
2017,04,02,12,41,9.20
2017,04,02,12,42,9.20
2017,04,02,12,43,9.20
2017,04,02,12,44,9.20
2017,04,02,12,45,9.30
2017,04,02,12,46,9.40
2017,04,02,12,47,9.50
2017,04,02,12,48,9.60
2017,04,02,12,49,9.70
2017,04,02,12,50,9.70
2017,04,02,12,51,9.60
2017,04,02,12,52,9.60
2017,04,02,12,53,9.60
2017,04,02,12,54,9.60
2017,04,02,12,55,9.60
2017,04,02,12,56,9.50
2017,04,02,12,57,9.50
2017,04,02,12,58,9.40
2017,04,02,12,59,9.30
2017,04,02,13,00,9.30
2017,04,02,13,01,9.20
2017,04,02,13,02,9.20
2017,04,02,13,03,9.20
2017,04,02,13,04,9.20
2017,04,02,13,05,9.20
2017,04,02,13,06,9.20
2017,04,02,13,07,9.20
2017,04,02,13,08,9.30
2017,04,02,13,09,9.30
2017,04,02,13,10,9.50
2017,04,02,13,11,9.60
2017,04,02,13,12,9.80
2017,04,02,13,13,9.90
2017,04,02,13,14,10.00
2017,04,02,13,15,10.20
2017,04,02,13,16,10.30
2017,04,02,13,17,10.40
2017,04,02,13,18,10.40
2017,04,02,13,19,10.50
2017,04,02,13,20,10.50
2017,04,02,13,21,10.50
2017,04,02,13,22,10.50
2017,04,02,13,23,10.50
2017,04,02,13,24,10.50
2017,04,02,13,25,10.50
2017,04,02,13,26,10.60
2017,04,02,13,27,10.70
2017,04,02,13,28,10.70
2017,04,02,13,29,10.80
2017,04,02,13,30,10.70
2017,04,02,13,31,10.50
2017,04,02,13,32,10.40
2017,04,02,13,33,10.40
2017,04,02,13,34,10.50
2017,04,02,13,35,10.50
2017,04,02,13,36,10.50
2017,04,02,13,37,10.40
2017,04,02,13,38,10.30
2017,04,02,13,39,10.10
2017,04,02,13,40,10.00
2017,04,02,13,41,9.90
2017,04,02,13,42,9.80
2017,04,02,13,43,9.70
2017,04,02,13,44,9.60
2017,04,02,13,45,9.50
2017,04,02,13,46,9.40
2017,04,02,13,47,9.20
2017,04,02,13,48,9.10
2017,04,02,13,49,8.90
2017,04,02,13,50,8.80
2017,04,02,13,51,8.80
2017,04,02,13,52,8.80
2017,04,02,13,53,8.70
2017,04,02,13,54,8.70
2017,04,02,13,55,8.70
2017,04,02,13,56,8.70
2017,04,02,13,57,8.60
2017,04,02,13,58,8.60
2017,04,02,13,59,8.60
2017,04,02,14,00,8.70
2017,04,02,14,01,8.70
2017,04,02,14,02,8.70
2017,04,02,14,03,8.80
2017,04,02,14,04,8.80
2017,04,02,14,05,8.80
2017,04,02,14,06,8.80
2017,04,02,14,07,8.80
2017,04,02,14,08,8.80
2017,04,02,14,09,8.80
2017,04,02,14,10,8.80
2017,04,02,14,11,8.70
2017,04,02,14,12,8.70
2017,04,02,14,13,8.60
2017,04,02,14,14,8.60
2017,04,02,14,15,8.60
2017,04,02,14,16,8.60
2017,04,02,14,17,8.60
2017,04,02,14,18,8.60
2017,04,02,14,19,8.60
2017,04,02,14,20,8.60
2017,04,02,14,21,8.60
2017,04,02,14,22,8.60
2017,04,02,14,23,8.60
2017,04,02,14,24,8.60
2017,04,02,14,25,8.60
2017,04,02,14,26,8.60
2017,04,02,14,27,8.60
2017,04,02,14,28,8.50
2017,04,02,14,29,8.40
2017,04,02,14,30,8.40
2017,04,02,14,31,8.30
2017,04,02,14,32,8.30
2017,04,02,14,33,8.30
2017,04,02,14,34,8.20
2017,04,02,14,35,8.20
2017,04,02,14,36,8.20
2017,04,02,14,37,8.20
2017,04,02,14,38,8.30
2017,04,02,14,39,8.30
2017,04,02,14,40,8.30
2017,04,02,14,41,8.30
2017,04,02,14,42,8.30
2017,04,02,14,43,8.30
2017,04,02,14,44,8.30
2017,04,02,14,45,8.30
2017,04,02,14,46,8.30
2017,04,02,14,47,8.30
2017,04,02,14,48,8.30
2017,04,02,14,49,8.20
2017,04,02,14,50,8.20
2017,04,02,14,51,8.20
2017,04,02,14,52,8.20
2017,04,02,14,53,8.20
2017,04,02,14,54,8.10
2017,04,02,14,55,8.10
2017,04,02,14,56,8.10
2017,04,02,14,57,8.10
2017,04,02,14,58,8.10
2017,04,02,14,59,8.10
2017,04,02,15,00,8.10
2017,04,02,15,01,8.10
2017,04,02,15,02,8.10
2017,04,02,15,03,8.10
2017,04,02,15,04,8.10
2017,04,02,15,05,8.10
2017,04,02,15,06,8.20
2017,04,02,15,07,8.20
2017,04,02,15,08,8.20
2017,04,02,15,09,8.20
2017,04,02,15,10,8.10
2017,04,02,15,11,8.10
2017,04,02,15,12,8.10
2017,04,02,15,13,8.20
2017,04,02,15,14,8.20
2017,04,02,15,15,8.20
2017,04,02,15,16,8.20
2017,04,02,15,17,8.30
2017,04,02,15,18,8.30
2017,04,02,15,19,8.30
2017,04,02,15,20,8.40
2017,04,02,15,21,8.40
2017,04,02,15,22,8.40
2017,04,02,15,23,8.40
2017,04,02,15,24,8.40
2017,04,02,15,25,8.50
2017,04,02,15,26,8.50
2017,04,02,15,27,8.60
2017,04,02,15,28,8.60
2017,04,02,15,29,8.60
2017,04,02,15,30,8.70
2017,04,02,15,31,8.70
2017,04,02,15,32,8.70
2017,04,02,15,33,8.70
2017,04,02,15,34,8.80
2017,04,02,15,35,8.80
2017,04,02,15,36,8.80
2017,04,02,15,37,8.80
2017,04,02,15,38,8.80
2017,04,02,15,39,8.80
2017,04,02,15,40,8.80
2017,04,02,15,41,8.90
2017,04,02,15,42,8.90
2017,04,02,15,43,8.90
2017,04,02,15,44,8.90
2017,04,02,15,45,8.90
2017,04,02,15,46,8.90
2017,04,02,15,47,8.90
2017,04,02,15,48,8.90
2017,04,02,15,49,8.90
2017,04,02,15,50,8.90
2017,04,02,15,51,8.90
2017,04,02,15,52,8.90
2017,04,02,15,53,8.90
2017,04,02,15,54,8.90
2017,04,02,15,55,8.90
2017,04,02,15,56,8.90
2017,04,02,15,57,8.90
2017,04,02,15,58,8.90
2017,04,02,15,59,8.90
2017,04,02,16,00,8.90
2017,04,02,16,01,8.90
2017,04,02,16,02,8.90
2017,04,02,16,03,8.90
2017,04,02,16,04,8.90
2017,04,02,16,05,8.90
2017,04,02,16,06,8.90
2017,04,02,16,07,8.90
2017,04,02,16,08,8.90
2017,04,02,16,09,8.90
2017,04,02,16,10,8.90
2017,04,02,16,11,8.90
2017,04,02,16,12,8.90
2017,04,02,16,13,8.90
2017,04,02,16,14,9.00
2017,04,02,16,15,9.00
2017,04,02,16,16,9.00
2017,04,02,16,17,9.10
2017,04,02,16,18,9.10
2017,04,02,16,19,9.10
2017,04,02,16,20,9.10
2017,04,02,16,21,9.20
2017,04,02,16,22,9.20
2017,04,02,16,23,9.30
2017,04,02,16,24,9.30
2017,04,02,16,25,9.40
2017,04,02,16,26,9.50
2017,04,02,16,27,9.60
2017,04,02,16,28,9.60
2017,04,02,16,29,9.70
2017,04,02,16,30,9.80
2017,04,02,16,31,9.90
2017,04,02,16,32,10.00
2017,04,02,16,33,10.00
2017,04,02,16,34,10.10
2017,04,02,16,35,10.20
2017,04,02,16,36,10.20
2017,04,02,16,37,10.20
2017,04,02,16,38,10.20
2017,04,02,16,39,10.20
2017,04,02,16,40,10.10
2017,04,02,16,41,10.00
2017,04,02,16,42,10.00
2017,04,02,16,43,9.90
2017,04,02,16,44,9.90
2017,04,02,16,45,9.80
2017,04,02,16,46,9.80
2017,04,02,16,47,9.90
2017,04,02,16,48,9.90
2017,04,02,16,49,9.90
2017,04,02,16,50,9.90
2017,04,02,16,51,9.90
2017,04,02,16,52,9.90
2017,04,02,16,53,9.90
2017,04,02,16,54,9.90
2017,04,02,16,55,9.90
2017,04,02,16,56,9.90
2017,04,02,16,57,10.00
2017,04,02,16,58,9.90
2017,04,02,16,59,9.90
2017,04,02,17,00,9.90
2017,04,02,17,01,9.80
2017,04,02,17,02,9.80
2017,04,02,17,03,9.80
2017,04,02,17,04,9.80
2017,04,02,17,05,9.80
2017,04,02,17,06,9.80
2017,04,02,17,07,9.80
2017,04,02,17,08,9.80
2017,04,02,17,09,9.80
2017,04,02,17,10,9.80
2017,04,02,17,11,9.80
2017,04,02,17,12,9.90
2017,04,02,17,13,9.90
2017,04,02,17,14,9.90
2017,04,02,17,15,9.90
2017,04,02,17,16,9.90
2017,04,02,17,17,9.90
2017,04,02,17,18,9.90
2017,04,02,17,19,9.90
2017,04,02,17,20,9.90
2017,04,02,17,21,9.90
2017,04,02,17,22,9.80
2017,04,02,17,23,9.80
2017,04,02,17,24,9.80
2017,04,02,17,25,9.80
2017,04,02,17,26,9.80
2017,04,02,17,27,9.80
2017,04,02,17,28,9.80
2017,04,02,17,29,9.80
2017,04,02,17,30,9.80
2017,04,02,17,31,9.80
2017,04,02,17,32,9.80
2017,04,02,17,33,9.70
2017,04,02,17,34,9.70
2017,04,02,17,35,9.70
2017,04,02,17,36,9.70
2017,04,02,17,37,9.60
2017,04,02,17,38,9.60
2017,04,02,17,39,9.60
2017,04,02,17,40,9.60
2017,04,02,17,41,9.60
2017,04,02,17,42,9.60
2017,04,02,17,43,9.60
2017,04,02,17,44,9.60
2017,04,02,17,45,9.60
2017,04,02,17,46,9.60
2017,04,02,17,47,9.60
2017,04,02,17,48,9.60
2017,04,02,17,49,9.60
2017,04,02,17,50,9.60
2017,04,02,17,51,9.60
2017,04,02,17,52,9.60
2017,04,02,17,53,9.50
2017,04,02,17,54,9.50
2017,04,02,17,55,9.50
2017,04,02,17,56,9.50
2017,04,02,17,57,9.40
2017,04,02,17,58,9.40
2017,04,02,17,59,9.40
2017,04,02,18,00,9.40
2017,04,02,18,01,9.30
2017,04,02,18,02,9.30
2017,04,02,18,03,9.30
2017,04,02,18,04,9.30